| time (UTC) | temp F | wind direction | speed MPH | gust MPH | rain 1hr in | rain 24hr in | rain mn in | humidity % | barometer mb |
| 20260503231522 | 76 | 183 | 2.0 | 12.0 | 0.00 | 0.00 | 0.00 | 38 | 1011.3 |
| 20260503230010 | 76 | 232 | 2.0 | 14.0 | 0.00 | 0.00 | 0.00 | 36 | 1011.4 |
| 20260503224546 | 77 | 193 | 4.0 | 11.0 | 0.00 | 0.00 | 0.00 | 35 | 1011.5 |
| 20260503223030 | 78 | 258 | 5.0 | 14.0 | 0.00 | 0.00 | 0.00 | 35 | 1011.6 |
| 20260503221510 | 78 | 241 | 3.0 | 15.0 | 0.00 | 0.00 | 0.00 | 34 | 1011.7 |
| 20260503220050 | 79 | 233 | 4.0 | 15.0 | 0.00 | 0.00 | 0.00 | 36 | 1011.8 |
| 20260503214532 | 78 | 233 | 8.0 | 15.0 | 0.00 | 0.00 | 0.00 | 33 | 1012.1 |
| 20260503213014 | 79 | 243 | 3.0 | 14.0 | 0.00 | 0.00 | 0.00 | 34 | 1012.2 |
| 20260503211552 | 78 | 222 | 6.0 | 15.0 | 0.00 | 0.00 | 0.00 | 34 | 1012.4 |
| 20260503210025 | 78 | 250 | 7.0 | 17.0 | 0.00 | 0.00 | 0.00 | 34 | 1012.7 |
| 20260503204506 | 78 | 211 | 6.0 | 16.0 | 0.00 | 0.00 | 0.00 | 36 | 1012.9 |
| 20260503203045 | 79 | 242 | 0.0 | 14.0 | 0.00 | 0.00 | 0.00 | 36 | 1013.2 |
| 20260503201528 | 77 | 243 | 6.0 | 17.0 | 0.00 | 0.00 | 0.00 | 36 | 1013.4 |
| 20260503200008 | 77 | 248 | 5.0 | 10.0 | 0.00 | 0.00 | 0.00 | 38 | 1013.7 |
| 20260503194547 | 77 | 231 | 4.0 | 14.0 | 0.00 | 0.00 | 0.00 | 40 | 1014.0 |
| 20260503193028 | 76 | 248 | 7.0 | 14.0 | 0.00 | 0.00 | 0.00 | 38 | 1014.2 |
| 20260503191504 | 75 | 300 | 3.0 | 15.0 | 0.00 | 0.00 | 0.00 | 43 | 1014.6 |
| 20260503190042 | 75 | 241 | 4.0 | 16.0 | 0.00 | 0.00 | 0.00 | 45 | 1014.8 |
| 20260503184521 | 74 | 187 | 4.0 | 15.0 | 0.00 | 0.00 | 0.00 | 43 | 1015.0 |
| 20260503183103 | 73 | 222 | 3.0 | 14.0 | 0.00 | 0.00 | 0.00 | 46 | 1015.3 |
| 20260503181540 | 72 | 220 | 5.0 | 14.0 | 0.00 | 0.00 | 0.00 | 47 | 1015.7 |
| 20260503180018 | 71 | 156 | 6.0 | 15.0 | 0.00 | 0.00 | 0.00 | 48 | 1015.9 |
| 20260503174602 | 71 | 160 | 6.0 | 14.0 | 0.00 | 0.00 | 0.00 | 46 | 1016.2 |
| 20260503174504 | 71 | 232 | 2.0 | 14.0 | 0.00 | 0.00 | 0.00 | 48 | 1016.3 |
| 20260503173038 | 71 | 153 | 4.0 | 14.0 | 0.00 | 0.00 | 0.00 | 47 | 1016.7 |
| 20260503171518 | 70 | 286 | 3.0 | 15.0 | 0.00 | 0.00 | 0.00 | 50 | 1016.9 |
| 20260503170107 | 70 | 171 | 4.0 | 15.0 | 0.00 | 0.00 | 0.00 | 47 | 1017.2 |
| 20260503081539 | 40 | 108 | 0.0 | 1.0 | 0.00 | 0.00 | 0.00 | 86 | 1019.7 |
| 20260503071522 | 40 | 120 | 0.0 | 1.0 | 0.00 | 0.00 | 0.00 | 88 | 1020.0 |
| 20260503054522 | 42 | 126 | 0.0 | 2.0 | 0.00 | 0.00 | 0.00 | 83 | 1020.6 |
| 20260503053050 | 42 | 125 | 0.0 | 1.0 | 0.00 | 0.00 | 0.00 | 81 | 1020.5 |
| 20260503051533 | 42 | 126 | 0.0 | 0.0 | 0.00 | 0.00 | 0.00 | 82 | 1020.6 |
| 20260503050015 | 44 | 257 | 0.0 | 0.0 | 0.00 | 0.00 | 0.00 | 78 | 1020.5 |
| 20260503044552 | 44 | 257 | 0.0 | 0.0 | 0.00 | 0.00 | 0.00 | 74 | 1020.5 |
| 20260503043040 | 45 | 257 | 0.0 | 0.0 | 0.00 | 0.00 | 0.00 | 73 | 1020.5 |
| 20260503041509 | 46 | 257 | 0.0 | 0.0 | 0.00 | 0.00 | 0.00 | 69 | 1020.4 |
| 20260503040054 | 48 | 257 | 0.0 | 0.0 | 0.00 | 0.00 | 0.00 | 65 | 1020.4 |
| 20260503034538 | 49 | 257 | 0.0 | 0.0 | 0.00 | 0.00 | 0.00 | 63 | 1020.5 |
| 20260503033026 | 49 | 257 | 0.0 | 0.0 | 0.00 | 0.00 | 0.00 | 61 | 1020.6 |
| 20260503031521 | 49 | 257 | 0.0 | 0.0 | 0.00 | 0.00 | 0.00 | 60 | 1020.5 |
| 20260503024534 | 52 | 257 | 0.0 | 0.0 | 0.00 | 0.00 | 0.00 | 55 | 1020.4 |
| 20260503023014 | 52 | 257 | 0.0 | 0.0 | 0.00 | 0.00 | 0.00 | 56 | 1020.3 |
| 20260503021601 | 53 | 257 | 0.0 | 0.0 | 0.00 | 0.00 | 0.00 | 55 | 1020.2 |
| 20260503020041 | 54 | 270 | 0.0 | 0.0 | 0.00 | 0.00 | 0.00 | 53 | 1020.0 |
| 20260503014524 | 55 | 278 | 0.0 | 0.0 | 0.00 | 0.00 | 0.00 | 52 | 1019.9 |
| 20260503013059 | 56 | 282 | 0.0 | 0.0 | 0.00 | 0.00 | 0.00 | 48 | 1019.8 |
| 20260503013003 | 56 | 283 | 0.0 | 0.0 | 0.00 | 0.00 | 0.00 | 48 | 1019.8 |
| 20260503011550 | 56 | 296 | 0.0 | 0.0 | 0.00 | 0.00 | 0.00 | 48 | 1019.6 |
| 20260503010029 | 57 | 320 | 0.0 | 0.0 | 0.00 | 0.00 | 0.00 | 47 | 1019.6 |
| 20260503004505 | 57 | 309 | 0.0 | 0.0 | 0.00 | 0.00 | 0.00 | 45 | 1019.5 |
| 20260503003044 | 58 | 315 | 0.0 | 0.0 | 0.00 | 0.00 | 0.00 | 44 | 1019.5 |
| 20260503001523 | 58 | 309 | 0.0 | 0.0 | 0.00 | 0.00 | 0.00 | 45 | 1019.4 |
| 20260503000006 | 59 | 287 | 0.0 | 0.0 | 0.00 | 0.00 | 0.00 | 43 | 1019.4 |
| 20260502234538 | 59 | 281 | 0.0 | 0.0 | 0.00 | 0.00 | 0.00 | 43 | 1019.3 |
| 20260502233022 | 60 | 338 | 0.0 | 0.0 | 0.00 | 0.00 | 0.00 | 42 | 1019.5 |